Home   Weather   Halifax   Past weeks

Flag for Canada Past Weather in Halifax, Nova Scotia, Canada — Yesterday and Last 2 Weeks

Now
52 °F

Passing clouds.


Feels Like: 49 °F
Forecast: 34 / 49 °F
Wind: 8 mph from West

Location: Halifax International Airport

Current Time: Apr 24, 2017 at 12:17:26 pm

Latest Report: Apr 24, 2017 at 11:00 am


Visibility: 15 mi

Pressure: 30.14 "Hg

Humidity: 67%

Dew Point: 41 °F

Location of HalifaxLocation

Past Weather in Halifax — Graph

°F

Halifax Temperature Yesterday

Maximum temperature yesterday: 41 °F (at 2:00 pm)
Minimum temperature yesterday: 32 °F (at 4:00 am)
Average temperature yesterday: 36 °F

High & Low Weather Summary for the Past Weeks

 TemperatureHumidityPressure
High73 °F (Apr 11, 5:00 pm)100% (Apr 12, 7:00 pm)30.66 "Hg (Apr 12, 7:00 pm)
Low18 °F (Apr 19, 7:00 am)25% (Apr 15, 4:00 pm)29.55 "Hg (Apr 17, 3:50 am)
Average41 °F74%30.11 "Hg
* Reported Apr 9 11:00 am — Apr 24 11:00 am, Halifax, Weather by CustomWeather, © 2017

Note: Actual official high and low records may vary slightly from our data, if they occured in-between our weather recording intervals... More about our weather records

Advertising

Halifax Weather History for the Previous 24 Hours

Scroll right to see more
 ConditionsComfort  
Time TempWeatherWind HumidityBarometerVisibility
11:00 am
Mon, Apr 24
52 °FPassing clouds.8 mph67%30.14 "Hg15 mi
10:00 am48 °FPassing clouds.12 mph71%30.14 "Hg15 mi
9:00 am45 °FPassing clouds.15 mph76%30.13 "Hg15 mi
8:39 am43 °FPassing clouds.15 mph81%30.12 "Hg15 mi
7:00 am34 °FPassing clouds.7 mph100%30.11 "Hg15 mi
6:00 am34 °FPassing clouds.9 mph100%30.09 "Hg15 mi
5:00 am34 °FClear.8 mph100%30.07 "Hg15 mi
4:00 am34 °FClear.9 mph100%30.08 "Hg15 mi
3:00 am34 °FClear.7 mph93%30.08 "Hg15 mi
2:00 am34 °FClear.12 mph100%30.08 "Hg15 mi
1:00 am36 °FClear.8 mph87%30.09 "Hg15 mi
12:00 am36 °FClear.5 mph87%30.07 "Hg15 mi
11:00 pm
Sun, Apr 23
39 °FPassing clouds.8 mph81%30.06 "Hg15 mi
10:00 pm39 °FOvercast.5 mph81%30.05 "Hg15 mi
9:00 pm39 °FOvercast.5 mph81%30.04 "Hg15 mi
8:00 pm39 °FOvercast.7 mph81%30.03 "Hg15 mi
7:00 pm39 °FOvercast.7 mph87%30.01 "Hg15 mi
6:22 pm39 °FOvercast.12 mph81%30.00 "Hg15 mi
5:00 pm39 °FOvercast.12 mph87%29.98 "Hg15 mi
4:00 pm41 °FOvercast.13 mph81%29.97 "Hg15 mi
3:00 pm39 °FOvercast.14 mph87%29.96 "Hg15 mi
2:00 pm41 °FOvercast.13 mph81%29.94 "Hg15 mi
1:00 pm39 °FOvercast.15 mph87%29.93 "Hg15 mi
12:00 pm39 °FMostly cloudy.14 mph93%29.93 "Hg15 mi
Weather by CustomWeather, © 2017

See weather overviewHow to use our weather pages